Weather History for Greenville, AL

Change the Weather History Date:

Saturday, April 27, 2013

  Actual Average Record
Temperature  
Mean Temperature 66 °F -  
Max Temperature 82 °F 80 °F 92 °F (1987)
Min Temperature 51 °F 53 °F 38 °F (1992)
Cooling Degree Days 2    
Growing Degree Days 16 (Base 50)    
Moisture  
Dew Point 57 °F    
Average Humidity 72    
Maximum Humidity 90    
Minimum Humidity 45    
Precipitation  
Precipitation 0.00 in - - ()
Sea Level Pressure  
Sea Level Pressure 30.15 in    
Wind  
Wind Speed 3 mph (South)    
Max Wind Speed 13 mph    
Max Gust Speed 21 mph    
Visibility 10 miles    
Events      
Averages and records for this station are not official NWS values.
T = Trace of Precipitation, MM = Missing Value Source: NWS Daily Summary

Daily Weather History Graph

Daily Weather History Graph

Search for Another Location

Airport:

Trip Planner

Search our weather history database for the weather conditions in past years. The results will help you decide how hot, cold, wet, or windy it might be!

Date:

Astronomy

Apr. 27, 2013 Rise Set
Actual Time 6:04 AM CDT 7:24 PM CDT
Civil Twilight 5:38 AM CDT 7:49 PM CDT
Nautical Twilight 5:08 AM CDT 8:20 PM CDT
Astronomical Twilight 4:36 AM CDT 8:52 PM CDT
Moon 9:46 PM CDT (4/27) 7:28 AM CDT (4/27)
Length of Visible Light 14h 11m
Length of Day
13h 19m
Waning Gibbous, 95% of the Moon is Illuminated
Apr 27
Waning Gibbous
May 2
Last Quarter
May 9
New
May 17
First Quarter
May 24
Full

Hourly Weather History & Observations

Time (CDT) Temp. Heat Index Dew Point Humidity Pressure Visibility Wind Dir Wind Speed Gust Speed Precip Events Conditions
12:56 AM 54.0 °F - 51.1 °F 90% 30.22 in 10.0 mi Calm Calm - N/A   Clear
1:56 AM 54.0 °F - 50.0 °F 86% 30.20 in 10.0 mi Calm Calm - N/A   Clear
2:56 AM 53.1 °F - 48.9 °F 86% 30.19 in 10.0 mi Calm Calm - N/A   Clear
3:56 AM 52.0 °F - 48.9 °F 89% 30.19 in 10.0 mi Calm Calm - N/A   Clear
4:56 AM 52.0 °F - 48.9 °F 89% 30.19 in 10.0 mi Calm Calm - N/A   Clear
5:56 AM 51.1 °F - 46.9 °F 86% 30.19 in 10.0 mi Calm Calm - N/A   Clear
6:56 AM 55.9 °F - 50.0 °F 80% 30.22 in 10.0 mi Calm Calm - N/A   Overcast
7:56 AM 57.9 °F - 51.1 °F 78% 30.22 in 10.0 mi Calm Calm - N/A   Overcast
8:56 AM 60.1 °F - 52.0 °F 75% 30.23 in 10.0 mi Variable 3.5 mph - N/A   Overcast
9:56 AM 64.0 °F - 55.0 °F 73% 30.22 in 10.0 mi SE 6.9 mph - N/A   Overcast
10:56 AM 71.1 °F - 61.0 °F 70% 30.21 in 10.0 mi SE 9.2 mph - N/A   Scattered Clouds
11:56 AM 75.9 °F - 63.0 °F 64% 30.20 in 10.0 mi SSE 8.1 mph 17.3 mph N/A   Scattered Clouds
12:56 PM 77.0 °F - 62.1 °F 60% 30.16 in 10.0 mi SE 5.8 mph 17.3 mph N/A   Mostly Cloudy
1:05 PM 78.8 °F - 62.6 °F 57% 30.17 in 10.0 mi SSE 9.2 mph 17.3 mph N/A   Scattered Clouds
1:56 PM 81.0 °F 81.7 °F 61.0 °F 50% 30.13 in 10.0 mi South 12.7 mph 20.7 mph N/A   Scattered Clouds
2:56 PM 79.0 °F - 59.0 °F 50% 30.12 in 10.0 mi South 6.9 mph - N/A   Partly Cloudy
3:56 PM 82.0 °F 82.1 °F 59.0 °F 45% 30.09 in 10.0 mi South 11.5 mph 17.3 mph N/A   Scattered Clouds
4:56 PM 81.0 °F 81.1 °F 57.9 °F 45% 30.08 in 10.0 mi SW 6.9 mph - N/A   Clear
6:56 PM 75.9 °F - 60.1 °F 58% 30.07 in 10.0 mi South 8.1 mph - N/A   Scattered Clouds
7:56 PM 73.0 °F - 60.1 °F 64% 30.07 in 10.0 mi South 5.8 mph - N/A   Partly Cloudy
8:56 PM 71.1 °F - 62.1 °F 73% 30.06 in 10.0 mi South 6.9 mph - N/A   Clear
9:56 PM 69.1 °F - 63.0 °F 81% 30.06 in 10.0 mi South 5.8 mph - N/A   Clear
10:56 PM 68.0 °F - 64.0 °F 87% 30.09 in 10.0 mi South 5.8 mph - N/A   Mostly Cloudy
11:56 PM 68.0 °F - 64.0 °F 87% 30.09 in 9.0 mi South 5.8 mph - N/A   Mostly Cloudy